Hourly Data Report for June 23, 2021

BORDEN AWOS
ONTARIO
Current Station Operator: DND

44°16'20.000" N
79°54'42.000" W
222.50 m
611B002
71534
YBN

Download Data

Hourly Data (June 2021)
Hourly Data Report for June 23, 2021
TIME
LST
Temp Definition
°C
Dew Point Definition
°C
Rel Hum Definition
%
Precip. Amount Definition
mm

Wind Dir Definition
10's deg

Wind Spd Definition
km/h
Visibility Definition
km
Stn Press Definition
kPa
Hmdx Definition


Wind Chill Definition


Weather Definition


00:00 7.6 4.3 80     0 14.5 98.99     LegendNANA
01:00 6.1 3.8 85   23 4 14.5 99.02     LegendNANA
02:00 5.1 3.2 88     0 14.5 99.06     LegendNANA
03:00
04:00 7.4 4.5 82     0 14.5 99.13     LegendNANA
05:00 6.7 4.3 85   14 6 14.5 99.19     LegendNANA
06:00 10.0 6.3 78   19 6 14.5 99.25     LegendNANA
07:00 13.7 8.1 69   23 9 14.5 99.31     LegendNANA
08:00 16.2 7.8 58   24 13 14.5 99.37     LegendNANA
09:00 17.2 7.8 54   19 7 14.5 99.40     LegendNANA
10:00 19.7 5.7 40   30 11 14.5 99.40     LegendNANA
11:00 20.9 3.6 32   32 7 14.5 99.42     LegendNANA
12:00 21.2 3.7 32   21 9 14.5 99.40     LegendNANA
13:00 23.0 4.6 30   25 11 14.5 99.36     LegendNANA
14:00 24.1 4.8 29   23 9 14.5 99.33     LegendNANA
15:00 25.1 5.3 28   25 17 14.5 99.29     LegendNANA
16:00 25.2 4.6 27   24 15 14.5 99.26     LegendNANA
17:00 24.9 3.7 25   19 19 14.5 99.25     LegendNANA
18:00 24.0 5.5 30   20 24 14.5 99.26     LegendNANA
19:00 23.0 7.2 36   19 20 14.5 99.26     LegendNANA
20:00 20.9 8.7 46   20 19 14.5 99.31     LegendNANA
21:00 19.1 9.6 54   17 13 14.5 99.38     LegendNANA
22:00 18.4 9.9 58   18 19 14.5 99.41     LegendNANA
23:00 17.8 9.5 58   20 17 14.5 99.42     LegendNANA

Notes on Data Quality.

Legend

  • E = Estimated
  • M = Missing
  • NA = Not Available*
  • [empty] = Indicates an unobserved value
Date modified: